This demonstration page uses our WeatherBlox Daily Observations layout. Learn more.

Left ArrowRight Arrow

38.89511, -77.03637

Hourly Observations for May 24, 2022

Temp ( °F °C ) Dew Point ( °F °C ) Humidity (%) Winds ( mph kmh ) Pressure ( in mb ) Visibility ( mi km ) Precip ( " mm )
12:52 am 00:52 Cloudy with Light Rain 62 16.7 54 12.2 75 75 NNW 9 15 30.21 1023 10 16 0.00 0.00
1:52 am 01:52 Cloudy with Light Rain 61 16.1 53 11.7 75 75 N 6 9 30.21 1023 9 14 0.02 0.51
2:52 am 02:52 Cloudy with Rain 59 15 55 12.8 87 87 NNW 7 11 30.22 1023 5 8 0.07 1.78
3:52 am 03:52 Cloudy with Light Rain 59 15 54 12.2 83 83 NNE 10 17 30.19 1022 8 13 0.07 1.78
4:52 am 04:52 Cloudy with Light Rain 59 15 55 12.8 87 87 NNE 10 17 30.17 1022 7 11 0.06 1.52
5:52 am 05:52 Cloudy with Light Rain 59 15 56 13.3 90 90 NNE 9 15 30.16 1021 10 16 0.04 1.02
6:12 am 06:12 Cloudy with Light Rain 60 15.6 56 13.3 86 86 NNE 10 17 30.17 1022 10 16 0.00 0.00
6:42 am 06:42 Cloudy with Light Rain 60 15.6 56 13.3 86 86 NE 8 13 30.19 1022 7 11 0.01 0.25
6:52 am 06:52 Cloudy with Light Rain 60 15.6 56 13.3 86 86 NE 9 15 30.20 1023 8 13 0.02 0.51
7:07 am 07:07 Cloudy with Light Rain 61 16.1 57 13.9 87 87 NE 12 19 30.21 1023 8 13 0.00 0.00
7:26 am 07:26 Cloudy with Light Rain 61 16.1 57 13.9 87 87 ENE 7 11 30.22 1023 8 13 0.00 0.00
7:52 am 07:52 Cloudy 61 16.1 57 13.9 87 87 ENE 7 11 30.22 1023 10 16 0.01 0.25
8:52 am 08:52 Cloudy 61 16.1 55 12.8 81 81 ENE 8 13 30.23 1024 10 16 0.00 0.00
9:52 am 09:52 Cloudy 62 16.7 55 12.8 78 78 ENE 8 13 30.24 1024 10 16 0.00 0.00
10:42 am 10:42 Cloudy with Light Rain 61 16.1 56 13.3 84 84 NE 9 15 30.25 1024 6 10 0.00 0.00
10:52 am 10:52 Cloudy with Light Rain 61 16.1 56 13.3 84 84 NE 10 17 30.24 1024 3 5 0.00 0.00
11:01 am 11:01 Cloudy with Light Rain 61 16.1 56 13.3 84 84 NE 13 20 30.25 1024 3 4 0.00 0.00
11:30 am 11:30 Cloudy with Mist and Fog 61 16.1 57 13.9 87 87 ENE 8 13 30.25 1024 3 5 0.00 0.00
11:52 am 11:52 Cloudy with Mist and Fog 61 16.1 57 13.9 87 87 NE 10 17 30.25 1024 3 5 0.01 0.25
12:10 pm 12:10 Cloudy with Light Rain 61 16.1 58 14.4 90 90 NE 8 13 30.25 1024 3 4 0.00 0.00
12:18 pm 12:18 Cloudy with Mist and Fog 62 16.7 58 14.4 86 86 NE 9 15 30.25 1024 4 6 0.00 0.00
12:28 pm 12:28 Cloudy with Mist and Fog 62 16.7 58 14.4 86 86 NE 9 15 30.25 1024 3 5 0.00 0.00
12:35 pm 12:35 Cloudy with Mist and Fog 62 16.7 58 14.4 86 86 NE 9 15 30.25 1024 3 4 0.00 0.00
12:44 pm 12:44 Cloudy with Mist and Fog 62 16.7 58 14.4 86 86 ENE 10 17 30.24 1024 3 5 0.00 0.00
12:52 pm 12:52 Cloudy with Mist and Fog 63 17.2 59 15 87 87 ENE 9 15 30.24 1024 4 6 0.00 0.00
1:16 pm 13:16 Cloudy with Light Rain 63 17.2 59 15 87 87 ENE 12 19 30.24 1024 3 4 0.00 0.00
1:26 pm 13:26 Cloudy with Light Rain 62 16.7 58 14.4 86 86 ENE 15 24 30.24 1024 2 3 0.02 0.51
1:36 pm 13:36 Cloudy with Light Rain 62 16.7 58 14.4 86 86 E 13 20 30.24 1024 3 4 0.02 0.51
1:52 pm 13:52 Cloudy with Mist and Fog 62 16.7 58 14.4 86 86 E 15 24 30.23 1024 6 10 0.02 0.51
2:02 pm 14:02 Cloudy 63 17.2 58 14.4 84 84 E 13 20 30.24 1024 10 16 0.00 0.00
2:40 pm 14:40 Cloudy 63 17.2 56 13.3 78 78 E 17 28 30.24 1024 10 16 0.00 0.00
2:52 pm 14:52 Cloudy 63 17.2 55 12.8 76 76 E 16 26 30.23 1024 10 16 0.00 0.00
3:52 pm 15:52 Cloudy 63 17.2 52 11.1 68 68 E 12 19 30.24 1024 10 16 0.00 0.00
3:56 pm 15:56 Cloudy 63 17.2 52 11.1 68 68 ENE 14 22 30.25 1024 10 16 0.00 0.00
4:52 pm 16:52 Cloudy 64 17.8 52 11.1 65 65 ENE 15 24 30.23 1024 10 16 0.00 0.00
5:52 pm 17:52 Cloudy 64 17.8 50 10 60 60 ENE 15 24 30.24 1024 10 16 0.00 0.00
6:52 pm 18:52 Cloudy 63 17.2 50 10 63 63 ENE 15 24 30.25 1024 10 16 0.00 0.00
7:52 pm 19:52 Cloudy 63 17.2 49 9.4 60 60 ENE 12 19 30.26 1025 10 16 0.00 0.00
8:52 pm 20:52 Cloudy 62 16.7 48 8.9 60 60 ENE 10 17 30.27 1025 10 16 0.00 0.00
9:52 pm 21:52 Mostly Cloudy 61 16.1 49 9.4 65 65 ENE 7 11 30.28 1026 10 16 0.00 0.00
10:52 pm 22:52 Mostly Cloudy 61 16.1 49 9.4 65 65 ENE 7 11 30.29 1026 10 16 0.00 0.00
11:52 pm 23:52 Cloudy 61 16.1 49 9.4 65 65 ENE 8 13 30.29 1026 10 16 0.00 0.00

Powered by AerisWeather